Regional Weather Roundup
Issued by NWS

Home | Current Version | Previous Version | Graphics & Text | Print | Product List | Glossary On
Versions: 1 2 3 4 5 6 7 8 9 10 11 12 13 14 15 16 17 18 19 20 21 22 23 24 25 26 27 28 29 30 31 32 33 34 35 36 37 38 39 40 41 42 43 44 45 46 47 48 49 50
000
ASUS43 KMKX 231200
RWRWI

WISCONSIN REGIONAL WEATHER ROUNDUP
NATIONAL WEATHER SERVICE MILWAUKEE/SULLIVAN WI
700 AM CDT WED AUG 23 2017

NOTE: "FAIR" INDICATES FEW OR NO CLOUDS BELOW 12,000 FEET WITH NO
SIGNIFICANT WEATHER AND/OR OBSTRUCTIONS TO VISIBILITY.

WIZ001-002-006>008-014>016-023>028-231300-
NORTHWEST WISCONSIN

CITY           SKY/WX    TMP DP  RH WIND       PRES   REMARKS
SUPERIOR ARPT    N/A     47  47 100 S5        30.06R
ASHLAND        MOCLDY    53  52  96 SW3       30.04R
6HR MIN TEMP:  50; 6HR MAX TEMP:  56;

HAYWARD        PTCLDY    46  44  93 CALM      30.07R
6HR MIN TEMP:  43; 6HR MAX TEMP:  56;

SIREN          CLEAR     49  48  97 CALM      30.08R
CUMBERLAND     CLEAR     50  48  93 NW6       30.08R
RICE LAKE      CLEAR     49  49  97 CALM      30.09R
CHETEK         CLEAR     50  49  95 CALM      30.07R
LADYSMITH      CLEAR     52  50  93 NW6       30.06R
EAU CLAIRE     MOCLDY    52  49  89 W5        30.07R
6HR MIN TEMP:  51; 6HR MAX TEMP:  57;

MENOMONIE      CLEAR     53  50  90 W6        30.08R
NEW RICHMOND   CLEAR     50  49  95 W3        30.09R
OSCEOLA        CLEAR     47  47 100 CALM      30.12R
$$

WIZ003>005-009-010-017-018-231300-
NORTH CENTRAL WISCONSIN

CITY           SKY/WX    TMP DP  RH WIND       PRES   REMARKS
MANITOWISH WTR CLOUDY    53  53 100 NW6       30.02R
ARBOR VITAE    PTCLDY    57  55  94 NW6       30.02R
WOODRUFF       PTCLDY    57  55  94 NW6       30.02R
RHINELANDER    CLOUDY    53  53 100 W6        30.03R
6HR MIN TEMP:  48; 6HR MAX TEMP:  53;

EAGLE RIVER    PTCLDY    53  53  99 CALM      30.00R
LAND O LAKES   PTCLDY    52  50  92 NW3       30.02R
PHILLIPS       MOCLDY    48  48 100 CALM      30.04R
6HR MIN TEMP:  48; 6HR MAX TEMP:  54;

TOMAHAWK         N/A     49  48  98 W5        30.04R
MEDFORD        CLEAR     46  46  99 CALM      30.04R
MERRILL        CLEAR     46  46 100 CALM      30.04R
$$

WIZ029-030-035-036-043>047-231300-
CENTRAL WISCONSIN

CITY           SKY/WX    TMP DP  RH WIND       PRES   REMARKS
WAUSAU         CLEAR     53  51  93 NW3       30.02R
6HR MIN TEMP:  52; 6HR MAX TEMP:  56;

MOSINEE        PTCLDY    52  52 100 NW5       30.04R
MARSHFIELD     CLEAR     52  49  89 NW8       30.04R
6HR MIN TEMP:  50; 6HR MAX TEMP:  54;

STEVENS POINT  CLEAR     50  50  99 NW5       30.03R
WAUPACA        CLEAR     55  51  86 W6        30.02R
WAUTOMA        CLEAR     53  50  89 W6        30.04R
6HR MIN TEMP:  51; 6HR MAX TEMP:  56;

WISC RAPIDS    CLEAR     51  49  92 NW3       30.06R
6HR MIN TEMP:  50; 6HR MAX TEMP:  57;

CAMP DOUGLAS   NOT AVBL
$$

WIZ011>013-019>022-031-037>040-048>050-231300-
NORTHEAST WISCONSIN

CITY           SKY/WX    TMP DP  RH WIND       PRES   REMARKS
ANTIGO         CLOUDY    51  51 100 NW9G16    30.02R FOG
SHAWANO        CLEAR     55  51  89 W6        29.99R
OCONTO         CLEAR     52  50  94 W5        29.98R
STURGEON BAY   PTCLDY    58  54  86 NW7       29.98R
6HR MIN TEMP:  57; 6HR MAX TEMP:  62;

GREEN BAY      CLEAR     54  53  97 W7        29.99R
6HR MIN TEMP:  52; 6HR MAX TEMP:  58;

MANITOWOC      NOT AVBL
APPLETON       PTCLDY    52  50  93 W9        29.99R
CLINTONVILLE   PTCLDY    54  50  87 NW7       30.00R
OSHKOSH        CLEAR     54  49  83 W3        30.01R
6HR MIN TEMP:  53; 6HR MAX TEMP:  59;

$$

WIZ032>034-041-042-053>061-231300-
SOUTHWEST WISCONSIN

CITY           SKY/WX    TMP DP  RH WIND       PRES   REMARKS
LA CROSSE      CLEAR     56  52  86 SE5       30.07R
6HR MIN TEMP:  54; 6HR MAX TEMP:  65;

SPARTA         CLEAR     44  43  98 CALM      30.07R
VIROQUA        CLEAR     51  50  97 W6        30.07S
BOSCOBEL       CLEAR     52  50  93 CALM      30.08R
6HR MIN TEMP:  51; 6HR MAX TEMP:  55;

PRAIRIE DU CHI CLEAR     53  47  81 W3        30.08S
PLATTEVILLE    CLEAR     51  51 100 W5        30.08R
$$

WIZ056-057-062-063-064-067-068-231300-
SOUTH CENTRAL WISCONSIN

CITY           SKY/WX    TMP DP  RH WIND       PRES   REMARKS
REEDSBURG      CLEAR     50  50 100 CALM      30.05R
BARABOO/DELLS  CLEAR     54  49  82 W5        30.05R
LONE ROCK      NOT AVBL
MINERAL POINT  CLEAR     52  50  93 CALM      30.07S
MADISON        CLEAR     56  51  84 NW6       30.04R
6HR MIN TEMP:  55; 6HR MAX TEMP:  60;

MIDDLETON      CLEAR     55  51  89 NW3       30.05S
WATERTOWN      CLEAR     54  53  95 W3        30.03R
MONROE         CLEAR     54  48  82 W12       30.06R
JANESVILLE     CLEAR     54  54 100 CALM      30.04S
$$

WIZ051-052-058>065-066-070>072-231300-
SOUTHEAST WISCONSIN

CITY           SKY/WX    TMP DP  RH WIND       PRES   REMARKS
MILWAUKEE      CLEAR     62  51  67 NW8       30.01R
6HR MIN TEMP:  61; 6HR MAX TEMP:  65;

WAUKESHA       CLEAR     55  50  82 W12       30.03R
MILWAUKEE/TIMM CLEAR     55  46  71 W9        30.01S
RACINE         CLEAR     58  52  80 W7        30.03R
6HR MIN TEMP:  57; 6HR MAX TEMP:  61;

KENOSHA        CLEAR     56  51  84 W7        30.02R
6HR MIN TEMP:  53; 6HR MAX TEMP:  58;

FOND DU LAC    CLEAR     56  49  77 W5        30.02R
6HR MIN TEMP:  54; 6HR MAX TEMP:  59;

SHEBOYGAN      CLEAR     56  54  93 W7        30.00R
6HR MIN TEMP:  55; 6HR MAX TEMP:  58;

WEST BEND      CLEAR     55  50  82 W9        30.01R
JUNEAU         CLEAR     52  49  89 CALM      30.04R
$$

LSZ147-162-231300-
LAKE SUPERIOR

STATION/POSITION TIME  TEMP    WIND        PRES    WAVE
                       AIR SEA DIR/SP/G            HT/PER
                 (UTC) (F)     (DEG/KT/KT) (MB)    (FT/S)
W MID LAKE BUOY  1050   58 59  360/ 10/ 12 1015.1R   2/ 4
DEVILS ISLAND    1100   59     340/ 13/ 15 1016.4R
SAXON HARBOR     1130   54     180/  5/  6 1016.3R
$$

LMZ867-665-643>646-231300-
LAKE MICHIGAN

STATION/POSITION TIME  TEMP    WIND        PRES    WAVE
                       AIR SEA DIR/SP/G            HT/PER
                 (UTC) (F)     (DEG/KT/KT) (MB)    (FT/S)
S GREEN BAY BUOY 1130   60 70  300/ 16/ 21 1014.5R
N MID LAKE BUOY  1050   61 66  310/ 16/ 19 1013.2R   2/ 4
NORTHPORT PIER   1140   60     310/ 16/ 20 1013.9R
KEWAUNEE LAKESHO 1130   56     300/  4/  6 1013.9R
SHEBOYGAN LAKESH 1100   59     280/  7/  8 1015.0R
PORT WASHINGTON  1130   60     290/  6/  9 1016.6R
ATWATER BUOY     1009   62 67  270/ 14/ 16 1015.3S
MILWAUKEE LAKESH 1140   61     290/ 10/ 13   N/A
S MID LAKE BUOY  1050   67 71  330/ 17/ 21 1014.7R   4/ 4
KENOSHA   LAKESH 1100   60     280/ 10/ 14 1015.9
$$

TC  - TEMPERATURE IN CELSIUS
VSB - VISIBILITY IN STATUTE MILES
WCI - WIND CHILL INDEX
HX  - HEAT INDEX




USA.gov is the U.S. government's official web portal to all federal, state and local government web resources and services.